This is the latest recevied weather packets stored in our database for station/object K8RRT. If no packets are shown the sender has not sent any weather packets the latest 10 day(s).
| Time | Temp. | Humidity | Pressure | Rain* | Wind** | Luminosity | Snow |
|---|---|---|---|---|---|---|---|
| 1777909621 | 17.78° C | 69% | 1008.6 hPa | 0 mm | - | 362 W/m² | - |
| 1777909319 | 17.22° C | 70% | 1008.5 hPa | 0 mm | - | 329 W/m² | - |
| 1777909017 | 17.78° C | 69% | 1008.5 hPa | 0 mm | - | 265 W/m² | - |
| 1777908714 | 17.78° C | 69% | 1008.7 hPa | 0 mm | - | 309 W/m² | - |
| 1777908411 | 17.78° C | 70% | 1008.7 hPa | 0 mm | - | 702 W/m² | - |
| 1777908108 | 17.22° C | 70% | 1009.2 hPa | 0 mm | - | 646 W/m² | - |
| 1777907804 | 16.67° C | 70% | 1009.1 hPa | 0 mm | - | 382 W/m² | - |
| 1777907499 | 16.67° C | 74% | 1009.3 hPa | 0 mm | - | 482 W/m² | - |
| 1777907196 | 16.11° C | 75% | 1009.3 hPa | 0 mm | - | 569 W/m² | - |
| 1777906893 | 16.11° C | 76% | 1009.3 hPa | 0 mm | - | 514 W/m² | - |
| 1777906590 | 15.56° C | 76% | 1009.2 hPa | 0 mm | - | 406 W/m² | - |
| 1777906286 | 15° C | 76% | 1009.3 hPa | 0 mm | - | 516 W/m² | - |
| 1777905983 | 15° C | 79% | 1009 hPa | 0 mm | - | 352 W/m² | - |
| 1777905679 | 14.44° C | 81% | 1009.2 hPa | 0 mm | - | 381 W/m² | - |
| 1777905376 | 13.89° C | 81% | 1009.3 hPa | 0 mm | - | 275 W/m² | - |
| 1777905074 | 13.89° C | 83% | 1009.2 hPa | 0 mm | - | 184 W/m² | - |
| 1777904771 | 13.33° C | 81% | 1009.4 hPa | 0 mm | - | 198 W/m² | - |
| 1777904468 | 13.33° C | 83% | 1009.7 hPa | 0 mm | - | 229 W/m² | - |
| 1777904164 | 12.78° C | 82% | 1009.5 hPa | 1.78 mm | - | 252 W/m² | - |
| 1777903862 | 12.78° C | 82% | 1009.7 hPa | 1.78 mm | - | 162 W/m² | - |
| 1777903558 | 12.78° C | 82% | 1010 hPa | 1.27 mm | - | 74 W/m² | - |
| 1777903254 | 13.33° C | 80% | 1010.1 hPa | 1.27 mm | - | 62 W/m² | - |
| 1777902951 | 13.89° C | 72% | 1010.1 hPa | 0 mm | - | 32 W/m² | - |
| 1777902648 | 13.89° C | 71% | 1010.1 hPa | 0 mm | - | 51 W/m² | - |
| 1777902345 | 13.89° C | 70% | 1009.8 hPa | 0 mm | - | 130 W/m² | - |
* Rain latest hour (hover to see other rain measurements)
** Current wind speed in m/s (hover to see current wind gust speed)